Location: Bittkow
(50.3000°N, 19.0000°E)
Time: 21:49:54
(UTC+00:00)

Gbstr 26 Del rocket - Pass Details

Date: 19 September 2020
Orbit: 493 x 1264 km, 51.8° (Epoch: 20 October)

Event Time Altitude Azimuth Distance (km) Brightness Sun altitude
Exits shadow 02:27:25 16° 286° (WNW) 2,801 6.0 -19.0°
Maximum altitude 02:34:13 83° 202° (SSW) 1,226 4.4 -18.1°
Drops below altitude 10° 02:41:35 10° 115° (ESE) 2,953 7.1 -17.0°
Sets 02:44:07 0° 114° (ESE) 3,813 7.7 -16.6°
